Location: Boiro
(42.6475°N, 8.8834°W)
Time: 01:13:07
(UTC+01:00)

Tiros 1 despin weight - Pass Details

Date: 30 November 2021
Orbit: 592 x 641 km, 48.2° (Epoch: 23 January)

Event Time Altitude Azimuth Distance (km) Brightness Sun altitude
Rises 22:01:39 0° 293° (WNW) 2,833 ? -43.2°
Enters shadow 22:02:50 - 290° (WNW) 2,381 ? -43.4°
Reaches altitude 10° 22:04:01 10° 286° (WNW) 1,933 - -43.6°
Maximum altitude 22:08:11 41° 216° (SW) 879 - -44.3°
Drops below altitude 10° 22:12:22 10° 147° (SSE) 1,948 - -45.1°
Sets 22:14:46 0° 140° (SE) 2,858 - -45.5°
